SV2MJJ Weather Reports


Display with metric or nautical units.
time (UTC)temp
F
wind
direction
speed
MPH
gust
MPH
rain 1hr
in
rain 24hr
in
rain mn
in
humidity
%
barometer
mb
20210515045545 64 294 0.0 0.0 0.00 0.00 0.00 55 1005.2
20210515045055 64 294 0.0 0.0 0.00 0.00 0.00 56 1005.2
20210515044544 64 294 0.0 0.0 0.00 0.00 0.00 56 1005.5
20210515044037 64 294 0.0 0.0 0.00 0.00 0.00 56 1005.5
20210515043546 64 294 0.0 0.0 0.00 0.00 0.00 56 1005.6
20210515043043 64 294 0.0 0.0 0.00 0.00 0.00 56 1005.5
20210515042539 64 294 0.0 0.0 0.00 0.00 0.00 56 1005.5
20210515042046 64 294 0.0 0.0 0.00 0.00 0.00 56 1005.8
20210515041542 64 294 0.0 0.0 0.00 0.00 0.00 55 1005.7
20210515041052 63 294 0.0 0.0 0.00 0.00 0.00 56 1005.8
20210515040532 63 294 0.0 0.0 0.00 0.00 0.00 57 1005.9
20210515040044 63 294 0.0 0.0 0.00 0.00 0.00 57 1005.8
20210515035553 63 296 0.0 0.0 0.00 0.00 0.00 57 1005.8
20210515035033 63 296 0.0 0.0 0.00 0.00 0.00 58 1005.8
20210515034548 63 296 0.0 0.0 0.00 0.00 0.00 56 1005.8
20210515034051 63 296 0.0 0.0 0.00 0.00 0.00 56 1005.7
20210515033550 64 296 0.0 0.0 0.00 0.00 0.00 56 1005.8
20210515033058 64 296 0.0 0.0 0.00 0.00 0.00 56 1005.8
20210515032551 64 296 0.0 0.0 0.00 0.00 0.00 56 1006.0
20210515032046 64 296 0.0 0.0 0.00 0.00 0.00 56 1005.9
20210515031554 64 296 0.0 0.0 0.00 0.00 0.00 55 1006.0
20210515031049 65 296 0.0 0.0 0.00 0.00 0.00 54 1006.0
20210515030545 65 296 0.0 0.0 0.00 0.00 0.00 53 1006.1
20210515030055 65 296 0.0 0.0 0.00 0.00 0.00 51 1006.2
20210515025534 65 296 0.0 0.0 0.00 0.00 0.00 52 1006.2
20210515025056 65 296 0.0 0.0 0.00 0.00 0.00 52 1006.2
20210515024532 65 296 0.0 0.0 0.00 0.00 0.00 52 1006.0
20210515024031 65 296 0.0 0.0 0.00 0.00 0.00 52 1006.0
20210515023555 65 296 0.0 0.0 0.00 0.00 0.00 51 1006.1
20210515023035 65 296 0.0 0.0 0.00 0.00 0.00 51 1006.2
20210515022550 65 296 0.0 0.0 0.00 0.00 0.00 51 1006.2
20210515022055 65 296 0.0 0.0 0.00 0.00 0.00 51 1005.8
20210515021534 66 296 0.0 0.0 0.00 0.00 0.00 50 1005.7
20210515021101 66 295 0.0 0.0 0.00 0.00 0.00 49 1005.8
20210515020554 66 281 0.0 0.0 0.00 0.00 0.00 48 1005.9
20210515020033 66 281 0.0 0.0 0.00 0.00 0.00 48 1005.8
20210515015600 66 281 0.0 0.0 0.00 0.00 0.00 47 1005.8
20210515015038 67 279 0.0 0.0 0.00 0.00 0.00 47 1005.8
20210515014551 66 282 0.0 0.0 0.00 0.00 0.00 47 1005.9
20210515014059 66 280 0.0 0.0 0.00 0.00 0.00 48 1006.0
20210515013534 66 280 0.0 0.0 0.00 0.00 0.00 49 1006.0
20210515013046 66 280 0.0 0.0 0.00 0.00 0.00 49 1005.9
20210515012533 66 280 0.0 0.0 0.00 0.00 0.00 48 1005.9
20210515012050 66 279 0.0 0.0 0.00 0.00 0.00 48 1006.0
20210515011550 66 280 0.0 0.0 0.00 0.00 0.00 48 1006.2
20210515011049 66 277 0.0 0.0 0.00 0.00 0.00 50 1006.3
20210515010547 66 277 0.0 0.0 0.00 0.00 0.00 51 1006.3
20210515010052 66 277 0.0 0.0 0.00 0.00 0.00 51 1006.3
20210515005546 66 277 0.0 0.0 0.00 0.00 0.00 49 1006.3
20210515005043 66 277 0.0 0.0 0.00 0.00 0.00 49 1006.4
20210515004535 66 277 0.0 0.0 0.00 0.00 0.00 48 1006.4
20210515004049 66 276 0.0 0.0 0.00 0.00 0.00 47 1006.5
20210515003558 65 275 0.0 0.0 0.00 0.00 0.00 48 1006.7
20210515003033 65 273 0.0 0.0 0.00 0.00 0.00 50 1006.6
20210515002548 65 272 0.0 0.0 0.00 0.00 0.00 49 1006.4
20210515002054 65 272 0.0 0.0 0.00 0.00 0.00 49 1006.4
20210515001533 65 271 0.0 0.0 0.00 0.00 0.00 48 1006.6
20210515001047 65 266 0.0 0.0 0.00 0.00 0.00 48 1006.4
20210515000551 66 262 0.0 0.0 0.00 0.00 0.00 47 1006.4
20210515000050 66 262 0.0 0.0 0.00 0.00 0.00 47 1006.3
20210514235556 66 261 0.0 0.0 0.00 0.00 0.00 47 1006.4
20210514235035 66 285 0.0 0.0 0.00 0.00 0.00 47 1006.4
20210514234535 66 286 0.0 0.0 0.00 0.00 0.00 47 1006.4
20210514234034 66 283 0.0 0.0 0.00 0.00 0.00 47 1006.3
20210514233537 66 283 0.0 0.0 0.00 0.00 0.00 47 1006.4
20210514233037 66 282 0.0 0.0 0.00 0.00 0.00 46 1006.4
20210514232547 66 282 0.0 0.0 0.00 0.00 0.00 46 1006.3
20210514232042 66 286 0.0 0.0 0.00 0.00 0.00 46 1006.4
20210514231542 66 286 0.0 0.0 0.00 0.00 0.00 46 1006.6
20210514231052 66 287 0.0 0.0 0.00 0.00 0.00 46 1006.5
20210514230548 67 286 0.0 0.0 0.00 0.00 0.00 46 1006.5
20210514230047 67 268 0.0 0.0 0.00 0.00 0.00 45 1006.4
20210514225554 67 267 0.0 0.0 0.00 0.00 0.00 46 1006.5
20210514225035 67 265 0.0 0.0 0.00 0.00 0.00 46 1006.4
20210514224601 67 251 0.0 0.0 0.00 0.00 0.00 46 1006.4
20210514224042 66 251 0.0 0.0 0.00 0.00 0.00 46 1006.4
20210514223542 66 261 0.0 0.0 0.00 0.00 0.00 46 1006.5
20210514223038 66 265 0.0 0.0 0.00 0.00 0.00 46 1006.7
20210514222547 66 253 0.0 0.0 0.00 0.00 0.00 46 1006.6
20210514222043 66 263 0.0 0.0 0.00 0.00 0.00 46 1006.6
20210514221546 67 267 0.0 0.0 0.00 0.00 0.00 46 1006.6
20210514221041 67 265 0.0 0.0 0.00 0.00 0.00 45 1006.5
20210514220544 68 261 0.0 0.0 0.00 0.00 0.00 44 1006.5
20210514220038 68 259 0.0 0.0 0.00 0.00 0.00 44 1006.6
20210514215535 69 257 0.0 0.0 0.00 0.00 0.00 43 1006.7
20210514215045 69 255 0.0 0.0 0.00 0.00 0.00 42 1006.7
20210514214538 69 261 0.0 0.0 0.00 0.00 0.00 42 1006.7
20210514214040 69 261 0.0 0.0 0.00 0.00 0.00 42 1006.6
20210514213540 68 261 0.0 0.0 0.00 0.00 0.00 43 1006.6
20210514213101 68 263 0.0 0.0 0.00 0.00 0.00 43 1006.6
20210514212534 69 263 0.0 0.0 0.00 0.00 0.00 43 1006.6
20210514212034 69 280 0.0 0.0 0.00 0.00 0.00 42 1006.7
20210514211543 69 288 0.0 0.0 0.00 0.00 0.00 42 1006.6
20210514211036 69 293 0.0 0.0 0.00 0.00 0.00 42 1006.7
20210514210532 69 296 0.0 0.0 0.00 0.00 0.00 42 1006.6
20210514210039 69 301 0.0 0.0 0.00 0.00 0.00 42 1006.7
20210514205533 69 302 0.0 0.0 0.00 0.00 0.00 42 1006.7
20210514205043 69 303 0.0 0.0 0.00 0.00 0.00 42 1006.7
20210514204539 70 312 0.0 0.0 0.00 0.00 0.00 41 1006.6
20210514204038 70 309 0.0 0.0 0.00 0.00 0.00 41 1006.6
20210514203540 70 286 0.0 0.0 0.00 0.00 0.00 40 1006.6
20210514203041 70 286 0.0 0.0 0.00 0.00 0.00 40 1006.6
20210514202545 71 276 0.0 0.0 0.00 0.00 0.00 40 1006.5
20210514202042 71 260 0.0 0.0 0.00 0.00 0.00 40 1006.7
20210514201541 71 260 0.0 0.0 0.00 0.00 0.00 40 1006.6
20210514201044 71 261 0.0 0.0 0.00 0.00 0.00 40 1006.6
20210514200539 71 276 0.0 0.0 0.00 0.00 0.00 40 1006.6
20210514200048 71 254 0.0 0.0 0.00 0.00 0.00 40 1006.7
20210514195546 71 255 0.0 0.0 0.00 0.00 0.00 40 1006.8
20210514195040 71 250 0.0 0.0 0.00 0.00 0.00 40 1006.8
20210514194548 71 259 0.0 0.0 0.00 0.00 0.00 40 1006.7
20210514194047 71 260 0.0 0.0 0.00 0.00 0.00 40 1006.8
20210514193547 71 267 0.0 0.0 0.00 0.00 0.00 40 1006.7
20210514193050 71 273 0.0 0.0 0.00 0.00 0.00 40 1006.7
20210514192549 71 246 0.0 0.0 0.00 0.00 0.00 40 1006.6
20210514192058 71 271 0.0 0.0 0.00 0.00 0.00 40 1006.5
20210514191533 71 252 0.0 0.0 0.00 0.00 0.00 40 1006.5
20210514191032 71 228 0.0 0.0 0.00 0.00 0.00 39 1006.3
20210514190544 72 256 0.0 0.0 0.00 0.00 0.00 39 1006.3
20210514190040 72 263 0.0 0.0 0.00 0.00 0.00 39 1006.2
20210514185536 72 284 0.0 0.0 0.00 0.00 0.00 39 1006.1
20210514185042 72 280 0.0 0.0 0.00 0.00 0.00 39 1006.0
20210514184542 72 275 0.0 0.0 0.00 0.00 0.00 39 1005.7
20210514184034 72 281 0.0 0.0 0.00 0.00 0.00 39 1005.6
20210514183539 72 290 0.0 0.0 0.00 0.00 0.00 39 1005.6
20210514183037 72 273 0.0 0.0 0.00 0.00 0.00 39 1005.6
20210514182539 72 323 0.0 0.0 0.00 0.00 0.00 40 1005.5
20210514182039 73 279 0.0 0.0 0.00 0.00 0.00 40 1005.5
20210514181547 73 265 0.0 0.0 0.00 0.00 0.00 39 1005.4
20210514181040 73 285 0.0 0.0 0.00 0.00 0.00 39 1005.3
20210514180540 73 283 0.0 0.0 0.00 0.00 0.00 39 1005.2
20210514180048 74 302 0.0 0.0 0.00 0.00 0.00 39 1005.1
20210514175539 74 286 0.0 0.0 0.00 0.00 0.00 38 1005.2
20210514175049 74 324 0.0 0.0 0.00 0.00 0.00 38 1005.1
20210514174547 74 284 0.0 0.0 0.00 0.00 0.00 38 1005.2
20210514174044 75 284 0.0 0.0 0.00 0.00 0.00 38 1005.1
20210514173547 75 278 0.0 0.0 0.00 0.00 0.00 38 1005.1
20210514173044 75 290 0.0 0.0 0.00 0.00 0.00 38 1005.2
20210514172539 75 284 0.0 0.0 0.00 0.00 0.00 38 1005.2
20210514172045 75 301 0.0 0.0 0.00 0.00 0.00 38 1005.1
20210514171541 75 26 0.0 0.0 0.00 0.00 0.00 38 1005.0
20210514171049 76 43 0.0 0.0 0.00 0.00 0.00 39 1005.1
20210514170539 76 49 0.0 0.0 0.00 0.00 0.00 43 1005.0
20210514170035 76 49 0.0 0.0 0.00 0.00 0.00 42 1004.9
20210514165540 76 49 0.0 0.0 0.00 0.00 0.00 43 1004.9
20210514165052 76 49 0.0 0.0 0.00 0.00 0.00 42 1004.9
20210514164545 77 49 0.0 0.0 0.00 0.00 0.00 42 1004.8
20210514164039 77 49 0.0 0.0 0.00 0.00 0.00 42 1004.8
20210514163541 77 49 0.0 0.0 0.00 0.00 0.00 41 1004.8
20210514163040 77 49 0.0 0.0 0.00 0.00 0.00 39 1004.8
20210514162538 77 49 0.0 0.0 0.00 0.00 0.00 38 1004.7
20210514162044 77 49 0.0 0.0 0.00 0.00 0.00 38 1004.8
20210514161535 77 49 0.0 0.0 0.00 0.00 0.00 38 1004.8
20210514161046 77 49 0.0 0.0 0.00 0.00 0.00 38 1004.9
20210514160544 77 49 0.0 0.0 0.00 0.00 0.00 39 1004.9
20210514160040 78 49 0.0 0.0 0.00 0.00 0.00 40 1004.9
20210514155548 78 49 0.0 0.0 0.00 0.00 0.00 39 1004.9
20210514155046 78 49 0.0 0.0 0.00 0.00 0.00 39 1004.8
20210514154541 78 49 0.0 0.0 0.00 0.00 0.00 40 1004.8
20210514154049 78 49 0.0 0.0 0.00 0.00 0.00 38 1004.7
20210514153548 78 49 0.0 0.0 0.00 0.00 0.00 38 1004.7
20210514153055 78 49 0.0 0.0 0.00 0.00 0.00 37 1004.8
20210514152552 78 49 0.0 0.0 0.00 0.00 0.00 37 1004.8
20210514152051 78 51 0.0 0.0 0.00 0.00 0.00 36 1004.6
20210514151600 79 55 0.0 0.0 0.00 0.00 0.00 35 1004.8
20210514151035 79 70 0.0 0.0 0.00 0.00 0.00 33 1004.8
20210514150534 79 74 0.0 0.0 0.00 0.00 0.00 32 1004.7
20210514150042 80 74 0.0 0.0 0.00 0.00 0.00 31 1004.9
20210514145538 80 75 0.0 0.0 0.00 0.00 0.00 31 1004.9
20210514145035 80 75 0.0 0.0 0.00 0.00 0.00 31 1004.9
20210514144543 80 74 0.0 0.0 0.00 0.00 0.00 30 1005.0
20210514144038 80 75 0.0 0.0 0.00 0.00 0.00 30 1005.1
20210514143546 80 76 0.0 0.0 0.00 0.00 0.00 30 1005.0
20210514143045 80 76 0.0 0.0 0.00 0.00 0.00 30 1004.9
20210514142543 80 76 0.0 0.0 0.00 0.00 0.00 30 1004.9
20210514142049 80 76 0.0 0.0 0.00 0.00 0.00 30 1004.9
20210514141546 80 76 0.0 0.0 0.00 0.00 0.00 31 1004.9
20210514141040 79 76 0.0 0.0 0.00 0.00 0.00 31 1005.0
20210514140544 79 78 0.0 0.0 0.00 0.00 0.00 31 1005.0
20210514140044 79 86 0.0 0.0 0.00 0.00 0.00 33 1005.2
20210514135549 78 86 0.0 0.0 0.00 0.00 0.00 33 1005.2
20210514135044 78 86 0.0 0.0 0.00 0.00 0.00 33 1005.0
20210514134538 78 87 0.0 0.0 0.00 0.00 0.00 34 1005.2
20210514134045 78 36 0.0 0.0 0.00 0.00 0.00 35 1005.3
20210514133538 78 55 0.0 0.0 0.00 0.00 0.00 35 1005.3
20210514133035 78 258 0.0 0.0 0.00 0.00 0.00 33 1005.3
20210514132541 78 255 0.0 0.0 0.00 0.00 0.00 34 1005.3
20210514132037 78 255 0.0 0.0 0.00 0.00 0.00 33 1005.4
20210514131601 78 273 0.0 0.0 0.00 0.00 0.00 32 1005.4
20210514131039 78 249 0.0 0.0 0.00 0.00 0.00 31 1005.4
20210514130538 78 245 0.0 0.0 0.00 0.00 0.00 32 1005.5
20210514130042 78 259 0.0 0.0 0.00 0.00 0.00 31 1005.5
20210514125539 77 265 0.0 0.0 0.00 0.00 0.00 32 1005.4
20210514125039 77 290 0.0 0.0 0.00 0.00 0.00 32 1005.7
20210514124544 77 254 0.0 0.0 0.00 0.00 0.00 32 1005.5
20210514124045 77 257 0.0 0.0 0.00 0.00 0.00 32 1005.5
20210514123555 77 258 0.0 0.0 0.00 0.00 0.00 32 1005.5
20210514123033 77 264 0.0 0.0 0.00 0.00 0.00 32 1005.6
20210514122548 77 253 0.0 0.0 0.00 0.00 0.00 33 1005.5
20210514122057 77 255 0.0 0.0 0.00 0.00 0.00 32 1005.7
20210514121537 76 260 0.0 0.0 0.00 0.00 0.00 32 1005.8
20210514121049 76 301 0.0 0.0 0.00 0.00 0.00 33 1005.8
20210514120556 76 255 0.0 0.0 0.00 0.00 0.00 35 1005.7
20210514120035 76 237 0.0 0.0 0.00 0.00 0.00 35 1005.8
20210514115600 76 242 0.0 0.0 0.00 0.00 0.00 33 1005.8
20210514115040 76 219 0.0 0.0 0.00 0.00 0.00 34 1005.8
20210514114541 76 226 0.0 0.0 0.00 0.00 0.00 34 1005.7
20210514114036 76 217 0.0 0.0 0.00 0.00 0.00 35 1005.7
20210514113544 76 217 0.0 0.0 0.00 0.00 0.00 35 1005.8
20210514113044 76 217 0.0 0.0 0.00 0.00 0.00 35 1005.8
20210514112551 76 223 0.0 0.0 0.00 0.00 0.00 34 1005.8
20210514112047 76 201 0.0 0.0 0.00 0.00 0.00 34 1005.8
20210514111545 76 296 0.0 0.0 0.00 0.00 0.00 34 1005.4
20210514111055 76 66 0.0 0.0 0.00 0.00 0.00 33 1005.8
20210514110551 77 49 0.0 0.0 0.00 0.00 0.00 34 1005.8
20210514110032 77 47 0.0 0.0 0.00 0.00 0.00 34 1005.8
20210514105559 78 51 0.0 0.0 0.00 0.00 0.00 34 1005.8
20210514105036 79 61 0.0 0.0 0.00 0.00 0.00 32 1005.8
20210514104537 79 286 0.0 0.0 0.00 0.00 0.00 30 1005.5
20210514104045 78 257 0.0 0.0 0.00 0.00 0.00 27 1005.8
20210514103541 78 259 0.0 0.0 0.00 0.00 0.00 27 1005.8
20210514103101 78 1 0.0 0.0 0.00 0.00 0.00 27 1005.9
20210514102536 77 344 0.0 0.0 0.00 0.00 0.00 30 1005.9
20210514102052 77 306 0.0 0.0 0.00 0.00 0.00 29 1005.9
20210514101556 77 23 0.0 0.0 0.00 0.00 0.00 29 1005.8
20210514101035 77 332 0.0 0.0 0.00 0.00 0.00 30 1005.8
20210514100536 76 351 0.0 0.0 0.00 0.00 0.00 30 1005.6
20210514100044 76 34 0.0 0.0 0.00 0.00 0.00 31 1005.6
20210514095545 76 38 0.0 0.0 0.00 0.00 0.00 32 1005.7
20210514095047 77 261 0.0 0.0 0.00 0.00 0.00 33 1005.7
20210514094549 77 265 0.0 0.0 0.00 0.00 0.00 35 1005.8
20210514094051 78 222 0.0 0.0 0.00 0.00 0.00 33 1005.6
20210514093559 78 86 0.0 0.0 0.00 0.00 0.00 35 1005.9
20210514093041 77 86 0.0 0.0 0.00 0.00 0.00 36 1005.9
20210514092536 77 84 0.0 0.0 0.00 0.00 0.00 35 1006.0
20210514092036 77 76 0.0 0.0 0.00 0.00 0.00 34 1006.0
20210514091542 76 77 0.0 0.0 0.00 0.00 0.00 35 1005.9
20210514091036 76 75 0.0 0.0 0.00 0.00 0.00 35 1006.0
20210514090535 76 55 0.0 0.0 0.00 0.00 0.00 37 1006.1
20210514090041 75 42 0.0 0.0 0.00 0.00 0.00 35 1006.2
20210514085535 75 38 0.0 0.0 0.00 0.00 0.00 33 1006.2
20210514085045 75 38 0.0 0.0 0.00 0.00 0.00 34 1006.4
20210514084546 75 48 0.0 0.0 0.00 0.00 0.00 35 1006.2
20210514084045 75 59 0.0 0.0 0.00 0.00 0.00 37 1006.3
20210514083549 75 67 0.0 0.0 0.00 0.00 0.00 36 1006.3
20210514083046 75 70 0.0 0.0 0.00 0.00 0.00 36 1006.2
20210514082542 75 75 0.0 0.0 0.00 0.00 0.00 37 1006.2
20210514082046 75 80 0.0 0.0 0.00 0.00 0.00 37 1006.3
20210514081549 74 85 0.0 0.0 0.00 0.00 0.00 37 1006.3
20210514081058 74 85 0.0 0.0 0.00 0.00 0.00 37 1006.3
20210514080551 74 81 0.0 0.0 0.00 0.00 0.00 38 1006.1
20210514080047 74 80 0.0 0.0 0.00 0.00 0.00 38 1006.1
20210514075559 73 79 0.0 0.0 0.00 0.00 0.00 39 1006.3
20210514075037 73 78 0.0 0.0 0.00 0.00 0.00 39 1006.3
20210514074549 73 81 0.0 0.0 0.00 0.00 0.00 39 1006.3
20210514074058 73 84 0.0 0.0 0.00 0.00 0.00 39 1006.3
20210514073534 73 113 0.0 0.0 0.00 0.00 0.00 41 1006.3
20210514073044 72 113 0.0 0.0 0.00 0.00 0.00 43 1006.4
20210514072549 71 113 0.0 0.0 0.00 0.00 0.00 43 1006.4
20210514072046 71 90 0.0 0.0 0.00 0.00 0.00 42 1006.4
20210514071551 71 88 0.0 0.0 0.00 0.00 0.00 43 1006.4
20210514071051 71 157 0.0 0.0 0.00 0.00 0.00 43 1006.4
20210514070547 71 148 0.0 0.0 0.00 0.00 0.00 43 1006.4
20210514070053 71 178 0.0 0.0 0.00 0.00 0.00 43 1006.4
20210514065550 71 147 0.0 0.0 0.00 0.00 0.00 43 1006.4
20210514065056 70 189 0.0 0.0 0.00 0.00 0.00 44 1006.3
20210514064546 70 190 0.0 0.0 0.00 0.00 0.00 43 1006.3
20210514064042 70 191 0.0 0.0 0.00 0.00 0.00 43 1006.3
20210514063549 70 198 0.0 0.0 0.00 0.00 0.00 43 1006.3
20210514063049 70 213 0.0 0.0 0.00 0.00 0.00 43 1006.3
20210514062543 70 228 0.0 0.0 0.00 0.00 0.00 44 1006.2
20210514062050 69 222 0.0 0.0 0.00 0.00 0.00 44 1006.3
20210514061548 69 201 0.0 0.0 0.00 0.00 0.00 43 1006.2
20210514061042 69 207 0.0 0.0 0.00 0.00 0.00 45 1006.2
20210514060550 69 199 0.0 0.0 0.00 0.00 0.00 45 1006.1
20210514060050 68 219 0.0 0.0 0.00 0.00 0.00 45 1006.1
20210514055542 68 226 0.0 0.0 0.00 0.00 0.00 47 1006.0
20210514055050 68 217 0.0 0.0 0.00 0.00 0.00 47 1005.9
20210514054549 68 212 0.0 0.0 0.00 0.00 0.00 46 1005.9
20210514054055 68 213 0.0 0.0 0.00 0.00 0.00 46 1005.9
20210514053532 68 238 0.0 0.0 0.00 0.00 0.00 46 1005.9
20210514053049 68 228 0.0 0.0 0.00 0.00 0.00 46 1005.7
20210514052559 68 223 0.0 0.0 0.00 0.00 0.00 46 1005.7
20210514052050 68 211 0.0 0.0 0.00 0.00 0.00 46 1005.7
20210514051558 68 222 0.0 0.0 0.00 0.00 0.00 46 1005.6
20210514051035 67 224 0.0 0.0 0.00 0.00 0.00 47 1005.5
20210514050550 67 211 0.0 0.0 0.00 0.00 0.00 47 1005.5
20210514050032 67 236 0.0 0.0 0.00 0.00 0.00 47 1005.5